Startseite
Über Mich
AHP4
Galerie
Sehschlangen
Tourenbuch
Bookmarks
Elektronik
Bewertung
Geschichten
[Tagesmessung] [Jahreswerte] [Information]

Messwerte vom 21.11.2021

Die letzten Messwerte von 23:58:46 Uhr:
KategorieMesswert
Temperatur [°C]5
Luftdruck [mBar]1000
Sonneneinstrahlung0
Wind [km/h]2 aus West
Niederschlag [l/m²]0
rel.Luftfeucht.96.6%
CO2 [ppm]603

Diagramme
Messwerte vom 21.11.2021
Tagesaggregation
KategorieMinimumMaximumSchnittSumme
Temperatur [°C]3106.7292
Luftdruck [mBar]9921000994.9000
Sonneneinstrahlung22260.6500
Wind [km/h]17
rF [%]89.496.695.29
Niederschlag [l/m²]0.2575
CO2 [ppm]403829658.6
Einordnung alsVegetationstag

Messungen an benachbarten Tagen: Zur Jahresaggregation 2021
Tabelle aller Messwerte
UhrzeitTemperatur [°C]Luftdruck [mBar]SonneWind [km/h]RichtungRegen [l/m²]rF [%]CO2 [ppm]
00:01:48 8 997 0 3 NW 0 93.3 762
00:04:47 8 997 0 7 SW 0 93 765
00:07:48 9 997 0 6 SO 0 92.9 762
00:10:49 8 998 0 2 NO 0 92.8 759
00:13:48 8 997 0 3 SW 0 92.8 753
00:16:45 8 998 0 4 W 0 92.9 757
00:19:45 8 997 0 3 S 0 92.7 765
00:22:46 8 997 0 2 SO 0 92.6 765
00:25:47 8 997 0 10 SO 0 92.4 769
00:28:45 8 997 0 6 O 0 92.1 762
00:31:46 8 996 0 4 SO 0 92 753
00:34:47 8 997 0 9 SO 0 91.8 756
00:37:46 8 996 0 2 O 0 91.5 752
00:40:45 8 997 0 1 SO 0 91.2 750
00:43:47 8 996 0 8 SW 0 91.1 750
00:46:46 9 996 0 11 O 0 90.6 749
00:49:49 9 997 0 3 SW 0 90.5 750
00:52:45 9 997 0 4 W 0 90.4 741
00:55:48 9 997 0 4 S 0 90.1 748
00:58:45 9 995 0 6 W 0 90 747
01:01:47 9 995 0 7 S 0 89.8 752
01:04:46 9 996 0 8 S 0 89.7 747
01:07:46 8 996 0 5 NO 0 89.7 747
01:10:48 8 996 0 4 SW 0 89.8 749
01:13:45 8 996 0 3 S 0 89.7 744
01:16:45 8 996 0 1 S 0 89.7 747
01:19:47 8 996 0 10 S 0 89.9 754
01:22:48 8 996 0 5 S 0 89.6 758
01:25:45 8 996 0 3 S 0 89.5 751
01:28:46 8 995 0 8 S 0 89.4 752
01:31:47 8 996 0 4 S 0 89.4 752
01:34:46 8 995 0 7 SW 0 89.5 743
01:37:44 8 996 0 7 S 0 89.7 737
01:40:47 8 995 0 8 SO 0 90.1 743
01:43:45 8 995 0 17 S 0 90.1 750
01:46:46 8 995 0 8 SW 0 90 747
01:49:47 8 995 0 8 S 0 89.9 750
01:52:45 8 995 0 5 S 0 90.1 746
01:55:46 8 995 0 3 S 0 90.2 756
01:58:47 8 996 0 5 SW 0 90.1 753
02:01:47 8 995 0 3 SW 0 90.1 753
02:04:48 8 995 0 8 NO 0 90.1 756
02:07:48 8 995 0 3 SO 0 90.2 751
02:10:47 8 995 0 7 W 0 90.3 756
02:13:48 8 995 0 3 NO 0 90.3 756
02:16:49 8 995 0 2 SW 0 90.3 759
02:19:45 8 995 0 2 S 0 90.3 752
02:22:47 8 995 0 4 SW 0 90.2 755
02:25:45 8 995 0 5 SW 0 90.1 751
02:28:45 8 995 0 1 SO 0 90.1 750
02:31:48 8 995 0 3 O 0 90 753
02:34:48 8 995 0 5 SW 0 89.9 757
02:37:47 8 995 0 6 SW 0 89.8 752
02:40:46 8 995 0 3 SW 0 90 754
02:43:47 8 995 0 2 SO 0 90.1 751
02:46:45 8 995 0 2 SW 0 90.1 753
02:49:46 8 995 0 6 SW 0 89.9 764
02:52:45 8 995 0 9 SW 0 89.7 764
02:55:49 8 995 0 2 NW 0 89.6 766
02:58:46 8 995 0 6 SW 0 89.7 764
03:01:46 8 995 0 3 S 0 89.8 764
03:04:46 8 995 0 3 S 0 89.8 755
03:07:46 8 995 0 2 SW 0 89.9 752
03:10:46 8 995 0 8 SW 0 90 761
03:13:47 8 995 0 6 S 0 90 765
03:16:46 8 995 0 7 O 0 89.9 759
03:19:45 8 995 0 4 S 0 89.8 752
03:22:45 8 995 0 3 S 0 90 755
03:25:49 8 995 0 2 NW 0 89.9 765
03:28:47 8 995 0 2 SW 0 90 762
03:31:47 8 995 0 5 SO 0 90.1 756
03:34:45 8 995 0 3 W 0 90.2 755
03:37:47 8 995 0 2 SW 0 90.3 759
03:40:46 8 995 0 2 SW 0 90.4 761
03:43:47 8 995 0 1 SW 0 90.5 755
03:46:47 8 995 0 1 SW 0 90.6 750
03:49:47 8 995 0 6 SO 0 90.4 758
03:52:47 8 995 0 6 SW 0 90.4 755
03:55:44 8 995 0 4 S 0 90.4 758
03:58:46 8 995 0 0 W 0 90.6 761
04:01:46 8 995 0 1 O 0 90.4 760
04:04:47 8 995 0 5 SW 0 90.6 747
04:07:45 8 995 0 9 S 0 90.7 747
04:10:46 8 995 0 1 0 90.8 746
04:13:44 8 995 0 2 S 0 90.8 747
04:16:44 8 994 0 1 S 0 90.8 754
04:19:48 8 994 0 5 SW 0 91 757
04:22:48 8 994 0 2 S 0 90.9 754
04:25:46 8 995 0 2 S 0 91.1 751
04:28:44 8 995 0 4 S 0 91.1 757
04:31:45 8 995 0 5 SO 0 91.2 764
04:34:47 8 995 0 2 W 0 91.3 774
04:37:44 8 994 0 2 O 0 91.4 768
04:40:47 8 994 0 0 NO 0 91.5 768
04:43:47 8 995 0 6 SO 0 91.6 772
04:46:46 8 994 0 5 S 0 91.8 773
04:49:48 8 995 0 4 SW 0 92 764
04:52:47 8 994 0 1 SO 0 92.2 768
04:55:46 8 995 0 2 S 0 92.8 764
04:58:46 8 994 0 0 O 0 93 761
05:01:46 8 994 0 2 O 0 93.2 755
05:04:45 8 995 0 5 SW 0 93.5 752
05:07:46 8 995 0 0 SW 0 93.7 758
05:10:47 8 995 0 0 SW 0 93.9 761
05:13:45 8 994 0 0 S 0 94 764
05:16:47 8 994 0 3 O 0 94.1 762
05:19:46 8 994 0 3 SO 0 94.2 764
05:22:46 8 994 0 4 W 0 94.4 764
05:25:46 8 994 0 4 W 0 94.5 758
05:28:48 8 994 0 6 W 0 94.9 749
05:31:48 8 994 0 2 SO 0 95.2 751
05:34:47 8 994 0 2 S 0 95.6 750
05:37:46 8 994 0 5 S 0 95.7 751
05:40:46 8 995 0 2 NW 0 95.8 753
05:43:46 8 994 0 2 SO 0 95.9 746
05:46:46 8 994 0 14 S 0 96.2 747
05:49:46 8 994 0 1 O 0 96.5 737
05:52:46 8 993 0 2 N 0 96.6 743
05:55:46 8 995 0 4 N 0 96.6 746
05:58:45 8 994 0 6 O 0 96.6 755
06:01:46 8 994 0 0 SW 0 96.6 747
06:04:46 8 994 0 3 NW 0 96.6 746
06:07:46 7 994 0 4 SO 0 96.6 738
06:10:47 7 994 0 4 S 0 96.6 746
06:13:46 7 994 0 0 W 0 96.6 742
06:16:44 7 994 0 2 O 0 96.6 749
06:19:46 7 993 0 4 SO 0 96.6 750
06:22:47 7 994 0 2 O 0 96.6 762
06:25:47 7 993 0 1 SW 0 96.6 771
06:28:46 7 993 0 0 SW 0 96.6 767
06:31:47 7 994 0 2 SW 0 96.6 755
06:34:44 7 994 0 1 S 0 96.6 753
06:37:47 7 993 0 0 W 0 96.6 759
06:40:46 7 994 0 2 NW 0 96.6 760
06:43:46 7 993 0 5 SW 0 96.6 759
06:46:45 7 992 0 7 S 0 96.6 765
06:49:46 8 994 0 2 S 0 96.6 767
06:52:45 8 993 0 4 W 0 96.6 767
06:55:45 8 993 0 4 W 0 96.6 770
06:58:45 7 992 0 1 W 0 96.6 773
07:01:45 7 993 0 4 SW 0 96.6 772
07:04:46 7 993 0 6 SW 0 96.6 768
07:07:46 7 993 0 3 SW 0 96.6 778
07:10:48 7 992 0 9 SO 0 96.6 779
07:13:46 7 993 0 4 SW 0 96.6 781
07:16:46 7 992 0 2 W 0 96.6 785
07:19:46 7 992 0 6 SW 0 96.6 779
07:22:46 7 992 4 3 W 0 96.6 785
07:25:45 7 993 6 2 S 0 96.6 796
07:28:43 7 993 9 1 0 96.6 794
07:31:47 7 992 11 2 SW 0 96.6 790
07:34:45 7 993 15 2 O 0 96.6 770
07:37:47 7 993 21 2 S 0 96.6 775
07:40:46 7 992 26 0 S 0 96.6 769
07:43:46 7 994 33 3 S 0 96.6 767
07:46:46 7 993 39 6 SW 0 96.6 761
07:49:46 7 992 47 4 SO 0 96.6 761
07:52:45 7 993 54 2 SO 0 96.6 761
07:55:47 7 993 61 3 0 96.6 770
07:58:46 7 994 63 6 NW 0 96.6 774
08:01:48 7 992 67 1 N 0 96.6 764
08:04:49 7 993 73 4 SO 0 96.6 756
08:07:47 7 993 66 1 SW 0 96.6 752
08:10:48 7 993 74 2 NW 0 96.6 754
08:13:46 7 993 79 4 S 0 96.6 753
08:16:46 7 993 88 1 S 0 96.6 759
08:19:49 7 993 81 0 W 0 96.6 763
08:22:49 7 994 109 3 NW 0 96.6 773
08:25:49 7 993 101 0 W 0 96.6 762
08:28:47 7 993 106 2 S 0 96.6 762
08:31:49 7 993 109 1 SW 0 96.6 759
08:34:45 7 993 106 1 0 96.6 756
08:37:50 7 993 112 0 NW 0 96.6 760
08:40:47 7 993 118 1 SW 0 96.6 756
08:43:46 7 993 119 3 W 0 96.6 756
08:46:47 7 993 132 8 SW 0 96.6 752
08:49:47 7 994 135 1 SW 0 96.6 763
08:52:46 7 993 139 4 SO 0 96.6 773
08:55:45 7 993 134 1 O 0 96.6 776
08:58:51 7 993 137 1 NW 0 96.6 774
09:01:47 7 992 137 0 SO 0 96.6 766
09:04:49 7 993 142 2 NW 0 96.6 771
09:07:47 7 993 146 1 N 0 96.6 776
09:10:47 7 994 142 4 SO 0 96.6 781
09:13:49 7 994 128 2 S 0 96.6 785
09:16:47 7 993 124 2 S 0 96.6 790
09:19:47 7 993 109 7 SW 0 96.6 783
09:22:49 7 993 116 0 SW 0 96.6 780
09:25:46 7 994 133 0 S 0 96.6 779
09:28:47 7 993 141 1 SO 0 96.6 774
09:31:47 7 992 144 3 SW 0 96.6 785
09:34:47 7 994 152 2 S 0 96.6 787
09:37:49 7 993 146 4 SW 0 96.6 788
09:40:47 7 994 142 3 S 0 96.6 785
09:43:46 7 994 144 3 SW 0 96.6 782
09:46:48 7 994 140 3 S 0 96.6 782
09:49:48 7 994 144 1 NW 0 96.6 782
09:52:45 7 994 151 3 S 0 96.6 784
09:55:47 7 994 146 0 NO 0 96.6 798
09:58:46 7 994 162 1 S 0 96.6 817
10:01:48 8 993 164 1 NW 0 96.6 820
10:04:47 8 994 153 5 NW 0 96.6 813
10:07:46 8 993 165 4 S 0 96.6 802
10:10:49 8 994 154 3 NO 0 96.6 794
10:13:46 8 993 160 3 NW 0 96.6 802
10:16:46 8 994 195 1 S 0 96.6 807
10:19:48 8 994 186 3 W 0 96.6 799
10:22:46 8 993 185 7 W 0.2575 96.6 790
10:25:49 8 993 196 6 W 0 96.6 800
10:28:49 8 994 199 3 SW 0 96.6 805
10:31:50 8 994 189 4 NW 0 96.6 808
10:34:46 8 993 160 4 W 0 96.6 811
10:37:47 8 994 169 3 SW 0 96.6 814
10:40:47 8 994 192 2 W 0 96.6 820
10:43:47 8 993 189 3 SW 0 96.6 826
10:46:48 8 994 173 3 NW 0 96.6 828
10:49:48 8 993 187 3 SW 0 96.6 828
10:52:47 8 994 189 7 W 0 96.6 829
10:55:47 8 994 190 4 SW 0 96.6 826
10:58:47 8 994 183 4 NW 0 96.6 829
11:01:49 8 993 184 2 SW 0 96.6 823
11:04:48 8 994 170 5 W 0 96.6 817
11:07:48 8 994 157 2 SO 0 96.6 819
11:10:47 8 994 166 7 S 0 96.6 820
11:13:46 8 994 161 6 W 0 96.6 826
11:16:47 8 994 177 7 SW 0 96.6 826
11:19:47 8 994 183 8 W 0 96.6 828
11:22:47 8 994 169 4 W 0 96.6 828
11:25:48 8 993 165 1 W 0 96.6 826
11:28:47 8 993 191 3 SW 0 96.6 823
11:31:47 8 994 194 5 NW 0 96.6 814
11:34:46 8 993 189 2 W 0 96.6 811
11:37:46 8 994 194 5 W 0 96.6 811
11:40:45 8 993 197 5 W 0 96.6 807
11:43:51 8 993 207 4 SW 0 96.6 805
11:46:47 8 994 204 7 W 0 96.6 809
11:49:48 8 993 202 2 SO 0 96.6 806
11:52:46 9 993 195 2 W 0 96.6 812
11:55:48 9 993 195 3 W 0 96.6 808
11:58:49 9 993 190 0 W 0 96.6 811
12:01:48 9 994 206 3 W 0 96.6 811
12:04:47 9 994 216 4 NW 0 96.6 807
12:07:49 9 993 207 2 SO 0 96.6 808
12:10:48 9 994 184 5 W 0 96.6 808
12:13:48 9 994 201 3 NW 0 96.6 806
12:16:48 9 994 198 6 W 0 96.6 805
12:19:47 9 994 210 2 W 0 96.6 794
12:22:47 9 993 213 3 W 0 96.6 798
12:25:47 9 993 220 2 W 0 96.6 800
12:28:49 9 993 222 3 NW 0 96.6 806
12:31:47 9 994 218 5 S 0 96.6 801
12:34:49 10 993 218 3 NW 0 96.6 802
12:37:47 10 994 211 5 W 0 96.6 798
12:40:49 10 993 209 7 NW 0 96.6 793
12:43:47 10 993 210 6 W 0 96.6 791
12:46:49 10 993 210 5 W 0 96.6 792
12:49:46 10 994 206 0 SW 0 96.6 794
12:52:47 9 994 203 2 SW 0 96.6 742
12:55:48 9 994 202 4 W 0 96.6 686
12:58:47 9 993 198 3 NW 0 96.6 697
13:01:50 9 994 185 4 SW 0 96.6 736
13:04:47 9 994 185 2 SW 0 96.6 750
13:07:46 9 994 195 4 W 0 96.6 752
13:10:46 9 994 193 5 W 0 96.6 759
13:13:45 9 994 190 5 N 0 96.6 755
13:16:46 9 994 192 3 SW 0 96.6 743
13:19:47 9 994 199 3 NW 0 96.6 740
13:22:47 9 993 200 3 W 0 96.6 737
13:25:45 9 994 209 4 W 0 96.6 734
13:28:46 9 994 211 3 W 0 96.6 744
13:31:47 9 993 209 2 O 0 96.6 741
13:34:47 9 994 206 6 W 0 96.6 738
13:37:48 9 994 203 2 SW 0 96.6 738
13:40:49 9 994 202 2 NW 0 96.6 741
13:43:47 9 994 203 0 S 0 96.6 744
13:46:49 9 994 201 0 W 0 96.6 756
13:49:48 9 994 203 7 W 0 96.6 765
13:52:45 9 994 186 2 S 0 96.6 771
13:55:48 9 994 185 1 NO 0 96.6 781
13:58:46 9 994 199 0 N 0 96.6 782
14:01:49 9 994 199 0 S 0 96.6 787
14:04:49 9 993 182 1 SW 0 96.6 787
14:07:46 9 993 184 4 W 0 96.6 787
14:10:47 9 994 191 2 NW 0 96.6 777
14:13:45 9 994 204 3 W 0 96.6 770
14:16:46 9 993 203 3 W 0 96.6 770
14:19:48 9 993 195 3 W 0 96.6 758
14:22:48 9 993 193 1 SW 0 96.6 750
14:25:44 9 994 192 2 W 0 96.6 741
14:28:47 9 994 194 4 W 0 96.6 738
14:31:45 9 994 191 1 SW 0 96.6 738
14:34:47 9 993 192 2 W 0 96.6 735
14:37:47 9 994 196 0 W 0 96.6 702
14:40:46 9 993 198 1 W 0 96.6 488
14:43:46 9 994 162 2 W 0 96.6 461
14:46:46 9 994 193 4 W 0 96.6 406
14:49:47 9 993 195 2 W 0 96.6 404
14:52:45 8 994 197 2 W 0 96.6 404
14:55:46 8 994 188 0 S 0 96.6 461
14:58:47 8 994 183 3 W 0 96.6 473
15:01:50 8 994 186 3 SW 0 96.6 456
15:04:47 8 994 190 0 SW 0 96.6 445
15:07:47 8 994 192 3 W 0 96.6 439
15:10:46 8 994 190 2 W 0 96.6 438
15:13:48 8 994 188 1 SW 0 96.6 433
15:16:46 8 994 191 1 SW 0 96.6 434
15:19:47 8 994 195 2 SW 0 96.6 436
15:22:49 8 994 196 0 SW 0 96.6 433
15:25:46 8 994 196 1 SW 0 96.6 436
15:28:48 7 994 193 3 SW 0 96.6 439
15:31:47 7 994 188 1 W 0 96.6 445
15:34:47 7 993 183 4 W 0 96.6 448
15:37:46 7 994 180 2 W 0 96.6 457
15:40:47 7 994 174 1 W 0 96.6 456
15:43:45 7 995 171 0 W 0 96.6 457
15:46:46 7 994 173 1 SW 0 96.6 447
15:49:46 7 994 169 0 W 0 96.6 439
15:52:46 7 994 164 0 W 0 96.6 444
15:55:45 7 994 153 0 W 0 96.6 460
15:58:47 7 994 142 1 W 0 96.6 472
16:01:46 7 995 130 2 SW 0 96.6 466
16:04:47 7 994 119 2 SW 0 96.6 466
16:07:49 7 995 113 3 W 0 96.6 457
16:10:48 6 995 106 1 SW 0 96.6 448
16:13:45 6 994 96 0 O 0 96.6 451
16:16:48 6 995 82 3 SW 0 96.6 448
16:19:46 6 995 75 2 SW 0 96.6 443
16:22:49 6 995 69 2 SW 0 96.6 454
16:25:45 6 994 59 2 W 0 96.6 454
16:28:46 6 994 48 2 W 0 96.6 449
16:31:48 6 994 38 1 W 0 96.6 450
16:34:46 6 995 29 0 SW 0 96.6 454
16:37:44 6 994 22 0 S 0 96.6 444
16:40:45 6 995 14 2 S 0 96.6 442
16:43:46 6 995 9 2 SW 0 96.6 442
16:46:44 6 995 5 0 S 0 96.6 440
16:49:46 6 995 3 0 S 0 96.6 440
16:52:46 5 995 0 2 SW 0 96.6 440
16:55:49 5 995 0 2 SW 0 96.6 437
16:58:47 5 995 0 2 SW 0 96.6 431
17:01:47 5 995 0 2 SW 0 96.6 431
17:04:48 5 994 0 2 W 0 96.6 422
17:07:45 5 995 0 1 S 0 96.6 427
17:10:46 5 995 0 1 SW 0 96.6 430
17:13:46 5 995 0 1 SW 0 96.6 433
17:16:44 5 995 0 1 S 0 96.6 424
17:19:48 5 995 0 0 SW 0 96.6 427
17:22:45 5 995 0 2 SW 0 96.6 424
17:25:50 5 995 0 0 S 0 96.6 422
17:28:45 5 995 0 0 W 0 96.6 419
17:31:46 5 995 0 0 W 0 96.6 413
17:34:47 5 995 0 0 W 0 96.6 408
17:37:48 5 995 0 0 W 0 96.6 407
17:40:46 5 995 0 0 W 0 96.6 404
17:43:46 5 995 0 0 W 0 96.6 404
17:46:46 4 995 0 0 W 0 96.6 404
17:49:44 4 995 0 0 W 0 96.6 410
17:52:45 4 995 0 0 O 0 96.6 404
17:55:45 4 995 0 0 O 0 96.6 404
17:58:46 4 995 0 0 O 0 96.6 404
18:01:45 4 995 0 0 O 0 96.6 406
18:04:46 4 995 0 0 SO 0 96.6 407
18:07:47 4 995 0 0 SO 0 96.6 404
18:10:50 4 995 0 0 S 0 96.6 407
18:13:46 4 995 0 0 SW 0 96.6 407
18:16:48 4 995 0 2 SO 0 96.6 408
18:19:47 4 995 0 0 SO 0 96.6 404
18:22:47 4 995 0 0 SO 0 96.6 406
18:25:48 4 995 0 0 SW 0 96.6 404
18:28:48 4 995 0 0 SW 0 96.6 405
18:31:48 4 995 0 0 SW 0 96.6 407
18:34:46 4 995 0 0 SW 0 96.6 407
18:37:45 4 995 0 0 O 0 96.6 407
18:40:44 4 995 0 0 O 0 96.6 403
18:43:47 4 995 0 0 O 0 96.6 404
18:46:45 4 996 0 0 O 0 96.6 404
18:49:48 4 996 0 0 SO 0 96.6 407
18:52:46 4 995 0 0 W 0 96.6 404
18:55:46 4 995 0 0 W 0 96.6 408
18:58:45 4 995 0 0 W 0 96.6 404
19:01:45 4 995 0 0 W 0 96.6 404
19:04:45 4 995 0 0 W 0 96.6 407
19:07:44 4 995 0 0 W 0 96.6 404
19:10:45 4 995 0 0 W 0 96.6 404
19:13:45 4 996 0 0 O 0 96.6 407
19:16:46 4 996 0 0 O 0 96.6 413
19:19:45 4 995 0 0 O 0 96.6 421
19:22:46 4 995 0 1 SO 0 96.6 431
19:25:45 4 996 0 1 S 0 96.6 443
19:28:48 4 996 0 0 SO 0 96.6 445
19:31:48 4 996 0 0 SO 0 96.6 452
19:34:46 4 996 0 0 S 0 96.6 460
19:37:46 4 996 0 0 S 0 96.6 463
19:40:45 4 996 0 0 S 0 96.6 468
19:43:46 4 995 0 0 S 0 96.6 474
19:46:46 4 996 0 0 S 0 96.6 477
19:49:45 4 996 0 0 S 0 96.6 482
19:52:47 4 996 0 0 W 0 96.6 477
19:55:47 4 996 0 0 W 0 96.6 483
19:58:46 4 996 0 0 W 0 96.6 490
20:01:47 4 995 0 0 W 0 96.6 481
20:04:48 4 996 0 0 SW 0 96.6 475
20:07:47 4 996 0 0 SW 0 96.6 468
20:10:47 4 996 0 0 SW 0 96.6 466
20:13:47 4 997 0 0 SW 0 96.6 466
20:16:47 4 996 0 0 SW 0 96.6 466
20:19:46 3 996 0 0 SW 0 96.6 468
20:22:45 3 997 0 0 S 0 96.6 474
20:25:46 3 996 0 0 S 0 96.6 471
20:28:46 3 996 0 0 S 0 96.6 492
20:31:45 3 997 0 0 S 0 96.6 497
20:34:47 3 996 0 0 S 0 96.6 507
20:37:45 3 997 0 0 S 0 96.6 516
20:40:46 3 997 0 0 S 0 96.6 515
20:43:46 3 997 0 0 S 0 96.6 513
20:46:46 3 997 0 0 S 0 96.6 509
20:49:45 3 997 0 0 S 0 96.6 512
20:52:47 3 998 0 0 S 0 96.6 520
20:55:45 3 998 0 0 S 0 96.6 527
20:58:47 3 997 0 0 S 0 96.6 539
21:01:46 3 997 0 0 S 0 96.6 538
21:04:46 3 997 0 0 S 0 96.6 536
21:07:46 3 997 0 0 S 0 96.6 526
21:10:48 3 998 0 0 S 0 96.6 527
21:13:46 3 998 0 0 S 0 96.6 538
21:16:48 3 998 0 0 SW 0 96.6 548
21:19:47 3 998 0 1 SW 0 96.6 556
21:22:48 3 998 0 2 SW 0 96.6 565
21:25:46 3 998 0 0 NW 0 96.6 553
21:28:46 4 998 0 0 NW 0 96.6 547
21:31:49 4 998 0 0 NW 0 96.6 545
21:34:47 4 998 0 0 NW 0 96.6 555
21:37:49 4 998 0 0 NW 0 96.6 550
21:40:48 4 998 0 0 NW 0 96.6 547
21:43:46 4 998 0 0 NW 0 96.6 550
21:46:47 3 998 0 0 NW 0 96.6 550
21:49:46 3 998 0 0 NW 0 96.6 550
21:52:46 3 998 0 0 NW 0 96.6 559
21:55:44 3 998 0 0 S 0 96.6 567
21:58:44 3 998 0 0 S 0 96.6 574
22:01:48 3 998 0 0 S 0 96.6 577
22:04:46 4 998 0 0 W 0 96.6 580
22:07:50 4 998 0 0 W 0 96.6 589
22:10:47 4 998 0 0 W 0 96.6 580
22:13:46 4 998 0 0 W 0 96.6 577
22:16:47 4 998 0 0 W 0 96.6 578
22:19:47 4 998 0 0 W 0 96.6 574
22:22:48 4 998 0 1 NW 0 96.6 568
22:25:47 4 998 0 0 NW 0 96.6 574
22:28:49 4 998 0 1 NW 0 96.6 580
22:31:47 4 998 0 0 NW 0 96.6 585
22:34:46 4 998 0 0 NW 0 96.6 580
22:37:45 4 998 0 1 NW 0 96.6 575
22:40:49 4 998 0 0 NW 0 96.6 582
22:43:49 4 999 0 0 NW 0 96.6 580
22:46:46 4 998 0 2 NW 0 96.6 571
22:49:47 4 998 0 2 NW 0 96.6 579
22:52:47 4 999 0 1 NW 0 96.6 579
22:55:46 4 998 0 0 N 0 96.6 588
22:58:47 4 998 0 0 NW 0 96.6 583
23:01:47 4 998 0 1 NW 0 96.6 586
23:04:47 4 998 0 0 NW 0 96.6 588
23:07:48 4 999 0 4 NW 0 96.6 594
23:10:46 4 999 0 2 N 0 96.6 603
23:13:46 5 999 0 0 SW 0 96.6 602
23:16:48 5 998 0 1 NO 0 96.6 606
23:19:47 5 998 0 0 NO 0 96.6 607
23:22:48 5 998 0 2 NW 0 96.6 606
23:25:49 5 999 0 2 NW 0 96.6 606
23:28:46 5 999 0 4 N 0 96.6 598
23:31:47 5 998 0 4 N 0 96.6 597
23:34:46 5 999 0 3 NW 0 96.6 592
23:37:44 5 999 0 6 W 0 96.6 595
23:40:47 5 998 0 5 0 96.6 600
23:43:46 5 998 0 4 0 96.6 606
23:46:47 5 999 0 3 W 0 96.6 600
23:49:46 5 999 0 3 NW 0 96.6 603
23:52:44 5 999 0 10 0 96.6 603
23:55:45 5 999 0 1 W 0 96.6 606
23:58:46 5 1000 0 2 W 0 96.6 603

Letzte Änderung : 04-Jan-2022
Copyright Jens Köhler, Wolfsburg, Obere Dorfstraße 10d